This is the latest recevied weather packets stored in our database for station/object SQ2HCW-13. If no packets are shown the sender has not sent any weather packets the latest 10 day(s).
| Time | Temp. | Humidity | Pressure | Rain* | Wind** | Luminosity | Snow |
|---|---|---|---|---|---|---|---|
| 1778061951 | 16.67° C | 74% | 990.1 hPa | 0 mm | - | - | - |
| 1778061342 | 16.11° C | 77% | 990 hPa | 0 mm | - | - | - |
| 1778060739 | 15.56° C | 77% | 990.1 hPa | 0 mm | - | - | - |
| 1778043342 | 10.56° C | 99% | 990.2 hPa | 0 mm | - | - | - |
| 1778042759 | 10.56° C | 99% | 990.3 hPa | 0 mm | - | - | - |
| 1778040917 | 10° C | 99% | 990.3 hPa | 0 mm | - | - | - |
| 1778035526 | 10° C | 99% | 991.5 hPa | 0 mm | - | - | - |
| 1778034918 | 10° C | 99% | 991.7 hPa | 0 mm | - | - | - |
| 1778033162 | 10° C | 99% | 991.6 hPa | 0 mm | - | - | - |
| 1778032574 | 10° C | 99% | 991.6 hPa | 0 mm | - | - | - |
| 1778031342 | 10° C | 99% | 991.8 hPa | 0 mm | - | - | - |
| 1778030130 | 10° C | 99% | 992.1 hPa | 0 mm | - | - | - |
| 1778027785 | 10° C | 99% | 992.2 hPa | 0 mm | - | - | - |
| 1778022918 | 10.56° C | 99% | 993 hPa | 0 mm | - | - | - |
| 1778022374 | 10.56° C | 99% | 993.1 hPa | 0 mm | - | - | - |
| 1778021162 | 10.56° C | 99% | 992.9 hPa | 0 mm | - | - | - |
| 1778020554 | 10.56° C | 99% | 992.9 hPa | 0 mm | - | - | - |
| 1778015765 | 10.56° C | 99% | 993 hPa | 0 mm | - | - | - |
| 1778013951 | 10.56° C | 97% | 993.2 hPa | 0 mm | - | - | - |
| 1778012739 | 10.56° C | 95% | 993.3 hPa | 0 mm | - | - | - |
| 1778012150 | 11.11° C | 95% | 993.4 hPa | 0 mm | - | - | - |
| 1778011526 | 11.11° C | 94% | 993.4 hPa | 0 mm | - | - | - |
| 1778010374 | 11.11° C | 91% | 993.4 hPa | 0 mm | - | - | - |
| 1778008554 | 11.67° C | 89% | 993.6 hPa | 0 mm | - | - | - |
| 1778002553 | 13.89° C | 83% | 992.9 hPa | 0 mm | - | - | - |
* Rain latest hour (hover to see other rain measurements)
** Current wind speed in m/s (hover to see current wind gust speed)